#timestamp,LO_Frequency,Hit,StdDev 
1550480415.6,286046998.5,N
1550480435.4,286046999.4,N
1550480455.3,286046999.2,N
1550480475.1,286046999.6,N
1550480495.9,286046998.7,N
1550480515.7,286046996.8,N
1550480535.5,286046998.8,N
1550480555.4,286046998.7,N
1550480575.2,286047000.5,N
1550480595.0,286046999.7,N
1550480595.9,286046999.7,N
1550480615.8,286047000.4,N
1550480635.6,286047001.2,N
1550480655.5,286047000.9,N
1550480675.3,286046998.2,N
1550480695.1,286047000.8,N
1550480715.9,286046998.3,N
1550480735.7,286047001.0,N
1550480755.5,286046998.8,N
1550480775.4,286046996.9,N
1550480795.2,286046997.2,N
1550480815.1,286046995.6,Y
1550480816.0,286046995.6,P
1550480835.8,286046996.1,N
1550480855.6,286046995.2,P
1550480875.5,286046996.5,N
1550480895.3,286046996.7,N
1550480915.2,286046998.2,N
1550480935.9,286047000.0,N
1550480955.7,286046999.9,N
1550480975.6,286047001.3,N
1550480995.4,286047001.7,N
1550481015.2,286047001.9,N
1550481035.1,286047002.1,N
1550481036.0,286047002.1,N
1550481055.8,286047002.1,N
1550481075.7,286047002.4,N
1550481095.5,286047002.1,N
1550481115.3,286047002.1,N
1550481135.2,286046999.9,N
1550481155.0,286047000.8,N
1550481155.9,286047000.8,N
1550481175.8,286047000.5,N
1550481195.6,286047002.3,N
1550481215.4,286047000.5,N
1550481235.3,286047002.5,N
1550481255.1,286047000.1,N
1550481275.9,286046999.7,N
1550481295.7,286047002.5,N
1550481315.5,286047000.2,N
1550481335.4,286047002.1,N
1550481355.2,286047002.6,N
1550481375.1,286047002.6,N
1550481376.0,286047002.6,N
1550481395.8,286047001.4,N
1550481415.6,286047002.0,N
1550481435.5,286047001.4,N
1550481455.3,286046999.8,N
1550481475.1,286046999.8,N
1550481495.9,286047002.4,N
1550481515.7,286047002.7,N
1550481535.8,286046999.7,N
1550481555.6,286047002.4,N
1550481575.5,286047002.8,N
1550481595.3,286046999.7,N
1550481615.1,286047000.4,N
1550481635.9,286047002.3,N
1550481655.7,286047002.5,N
1550481675.6,286047002.8,N
1550481695.4,286047002.3,N
1550481715.2,286047001.8,N
1550481735.1,286047003.6,Y
1550481736.0,286047003.6,P
1550481755.8,286047001.3,N
1550481775.7,286047003.8,P
1550481795.5,286047005.4,Y
1550481815.3,286047000.0,P
1550481835.2,286047000.0,N
1550481855.0,286047003.7,P
1550481855.9,286047003.7,N
1550481875.8,286047003.6,N
1550481895.6,286047002.4,N
1550481915.4,286047000.4,N
1550481935.3,286047000.5,N
1550481955.1,286047002.3,N
1550481975.9,286046999.0,N
1550481995.7,286046996.5,N
1550482015.5,286046999.5,N
1550482035.4,286046996.9,N
1550482055.2,286046996.5,N
1550482075.0,286046998.8,N
1550482075.9,286046998.8,N
1550482095.8,286046997.1,N
1550482115.6,286046995.1,N
1550482135.5,286046997.7,N
1550482155.3,286046999.5,N
1550482175.1,286046998.3,N
1550482195.9,286046998.8,N
1550482215.7,286047000.3,N
1550482235.5,286047002.4,N
1550482255.4,286047002.2,N
1550482275.2,286047001.6,N
1550482295.1,286047002.3,N
1550482296.0,286047002.3,N
1550482315.8,286047000.3,N
1550482335.6,286047000.6,N
1550482355.5,286046999.7,N
1550482375.3,286047001.4,N
1550482395.2,286047002.1,N
1550482415.9,286047004.1,N
1550482435.7,286047001.8,N
1550482455.6,286046999.7,N
1550482475.4,286047002.4,N
1550482495.2,286046999.9,N
1550482515.1,286047000.9,N
1550482516.0,286047000.9,N
1550482535.8,286046998.4,N
1550482555.7,286046999.4,N
1550482575.5,286046999.2,N
1550482595.3,286046999.2,N
1550482615.2,286046999.4,N
1550482635.0,286046998.3,N
1550482635.9,286046998.3,N
1550482655.7,286047002.3,N
1550482675.6,286047000.2,N
1550482695.4,286047001.1,N
1550482715.3,286047001.2,N
1550482735.1,286047002.6,N
1550482736.0,286047002.6,N
1550482755.8,286047002.4,N
1550482805.7,286047000.9,E
1550482815.6,286047000.3,N
1550482835.5,286047000.6,P
1550482855.3,286047000.6,P
1550482875.1,286046998.2,Y
1550482895.1,286046998.4,P
1550482915.9,286047000.0,N
1550482935.7,286047000.0,N
1550482955.5,286047000.9,N
1550482975.4,286047000.6,N
1550482995.2,286047002.8,Y
1550483015.0,286047002.1,P
1550483015.9,286047002.1,N
1550483035.8,286047002.8,N
1550483055.6,286047000.8,N
1550483075.5,286047001.2,N
1550483095.3,286047000.9,N
1550483115.1,286046998.5,N
1550483135.9,286047001.0,N
1550483155.7,286046999.9,N
1550483175.6,286046998.6,N
1550483195.4,286046998.6,N
1550483215.2,286047000.6,N
1550483235.1,286046997.0,N
1550483236.0,286046997.0,N
1550483255.8,286046998.7,N
1550483275.6,286046999.0,N
1550483295.5,286046999.3,N
1550483315.3,286046998.7,N
1550483335.2,286046998.8,N
1550483355.9,286046995.3,N
1550483375.7,286046996.5,N
1550483395.6,286046998.1,N
1550483415.4,286047001.0,N
1550483435.2,286046998.1,N
1550483455.1,286046999.4,N
1550483456.0,286046999.4,N
1550483475.8,286046999.4,N
1550483495.7,286046998.4,N
1550483515.5,286046998.6,N
1550483535.3,286046998.8,N
1550483555.2,286047000.8,N
1550483575.0,286046998.3,N
1550483575.9,286046998.3,N
1550483595.8,286046999.2,N
1550483615.6,286046999.4,N
1550483635.4,286046999.4,N
1550483655.3,286046998.5,N
1550483675.1,286047000.1,N
1550483695.9,286047001.1,N
1550483715.7,286046999.5,N
1550483735.5,286046999.5,N
1550483755.4,286046998.4,N
1550483775.2,286046998.8,N
1550483795.0,286046999.3,N
1550483796.0,286046999.3,N
1550483815.8,286046998.9,N
1550483835.6,286046998.7,N
1550483855.5,286046999.5,N
1550483875.3,286046996.6,Y
1550483895.1,286047001.2,P
1550483915.9,286046999.8,N
1550483935.7,286047004.0,P
1550483955.6,286047001.4,N
1550483975.4,286047003.2,N
1550483995.2,286047004.2,N
